Asuncion, Paraguay

7:49 AM -04 en Septiembre 22, 2018 (GMT -0400)
Silvio Pettirossi International

Tiempo Historia de SGAS - Marzo, 2018

Change the Weather History Date:

Miércoles, Marzo 14, 2018

  Actual Average Record
Temperature  
Temperatura media 88 ° F -  
Temperatura máxima 96 ° F 86 ° F 96 ° F (2014)
Temperatura mínima 79 ° F 69 ° F 56 ° F (2017)
Cooling Degree Days 22    
Growing Degree Days 38 (Base 50)    
Moisture  
Punto de rocío 77 ° F    
Average Humidity 74    
Maximum Humidity 94    
Minimum Humidity 45    
Precipitación  
Precipitación 0.00 pul 0.18 pul - ()
Presión al nivel del mar  
Presión al nivel del mar 29.72 pul    
Viento  
Velocidad del viento 5 mph ()    
Velocidad máxima del viento 14 mph    
Max Gust Speed -    
Visibilidad 7.8 Millas    
Eventos Tormenta    
Averages and records for this station are not official NWS values.
T = Trace of Precipitation, MM = Missing Value Source: Averaged Metar Reports

Daily Weather History Graph

Daily Weather History Graph

Search for Another Location

Airport or City:

Astronomía

Mar. 14, 2018 Salida Puesta
Hora real 6:50 AM -03 7:07 PM -03
Crepúsculo civil 6:28 AM -03 7:30 PM -03
Crepúsculo náutico 6:01 AM -03 7:56 PM -03
Crepúsculo astronómico 5:34 AM -03 8:23 PM -03
Luna 4:06 AM -03 (3/14) 5:30 PM -03 (3/14)
Horas de luz 13h 02m
Horas de luz
12h 16m
Creciente menguante, 9% of the Moon is Illuminated
Mar 14
Creciente menguante
Mar 17
Nueva
Mar 24
Cuarto creciente
Mar 31
Luna llena
Abr 8
Cuarto menguante

Hourly Weather History & Observations

Hora (-03) Temp. Índice de calor Punto de rocío Humedad Presión Visibilidad Wind Dir Velocidad del viento Velocidad de ráfagas Precip Eventos Condiciones
12:00 AM 81 ° F - 78 ° F 87% 29.76 pul 12 mi ESE 2.3 mph - -   Muy nublado
12:00 AM 80.6 ° F 87.1 ° F 77.0 ° F 89% 29.77 pul 6.2 mi ESE 2.3 mph - N/A Tormenta Parcialmente nublado
1:00 AM 80.6 ° F 86.2 ° F 75.2 ° F 84% 29.77 pul 6.2 mi Variable 4.6 mph - N/A Tormenta Tormenta
2:00 AM 80.6 ° F 86.2 ° F 75.2 ° F 84% 29.74 pul 6.2 mi ENE 5.8 mph - N/A Tormenta Tormenta
3:00 AM 80 ° F - 76 ° F 83% 29.75 pul 12 mi NE 5.8 mph - -   Nublado
3:00 AM 78.8 ° F - 75.2 ° F 89% 29.74 pul 6.2 mi NE 5.8 mph - N/A Tormenta Tormenta
4:00 AM - - - N/A% - - Norte - - N/A Tormenta Tormenta
5:00 AM 78.8 ° F - 75.2 ° F 89% 29.74 pul 6.2 mi Sin viento Sin viento - N/A Tormenta Tormenta
6:00 AM 80 ° F - 76 ° F 84% 29.77 pul 12 mi Sin viento Sin viento - -   Muy nublado
6:00 AM 78.8 ° F - 75.2 ° F 89% 29.77 pul 6.2 mi Sin viento Sin viento - N/A Tormenta Tormenta
7:00 AM 78.8 ° F - 77.0 ° F 94% 29.77 pul 6.2 mi Sin viento Sin viento - N/A   Muy nublado
8:00 AM 78.8 ° F - 77.0 ° F 94% 29.77 pul 6.2 mi Sur 3.5 mph - N/A   Muy nublado
9:00 AM 82 ° F - 77 ° F 82% 29.79 pul 12 mi NNE 4.6 mph - -   Nubes dispersas
9:00 AM 82.4 ° F 90.9 ° F 77.0 ° F 84% 29.77 pul 6.2 mi NNE 5.8 mph - N/A   Muy nublado
9:30 AM 84.2 ° F 96.1 ° F 78.8 ° F 84% 29.77 pul 6.2 mi NNE 9.2 mph - N/A   Muy nublado
10:00 AM 86.0 ° F 99.3 ° F 78.8 ° F 79% 29.80 pul 6.2 mi NNE 6.9 mph - N/A   Muy nublado
10:30 AM 86.0 ° F 99.3 ° F 78.8 ° F 79% 29.80 pul 6.2 mi Norte 9.2 mph - N/A   Muy nublado
11:00 AM 87.8 ° F 102.5 ° F 78.8 ° F 75% 29.80 pul 6.2 mi Norte 8.1 mph - N/A   Muy nublado
12:00 PM 90 ° F - 77 ° F 58% 29.78 pul 12 mi Norte 9.2 mph - -   Nubes dispersas
12:00 PM 91.4 ° F 107.2 ° F 78.8 ° F 66% 29.77 pul 6.2 mi NNO 9.2 mph - N/A   Muy nublado
1:00 PM 93.2 ° F 110.2 ° F 78.8 ° F 63% 29.74 pul 6.2 mi Norte 11.5 mph - N/A   Nubes dispersas
2:00 PM 95.0 ° F 109.7 ° F 77.0 ° F 56% 29.71 pul 6.2 mi Norte 13.8 mph - N/A   Nubes dispersas
3:00 PM 95 ° F - 77 ° F 47% 29.70 pul 12 mi Norte 12.7 mph - -   Parcialmente nublado
3:00 PM 95.0 ° F 109.7 ° F 77.0 ° F 56% 29.68 pul 6.2 mi Norte 13.8 mph - N/A   Nubes dispersas
4:00 PM 96.8 ° F 112.2 ° F 77.0 ° F 53% 29.65 pul 6.2 mi Norte 13.8 mph - N/A   Nubes dispersas
5:00 PM 95.0 ° F 109.7 ° F 77.0 ° F 56% 29.62 pul 6.2 mi Norte 13.8 mph - N/A   Nubes dispersas
6:00 PM 94 ° F - 75 ° F 45% 29.63 pul 12 mi Norte 11.5 mph - -   Nubes dispersas
6:00 PM 93.2 ° F 107.2 ° F 77.0 ° F 59% 29.62 pul 6.2 mi Norte 11.5 mph - N/A   Parcialmente nublado
7:00 PM 91.4 ° F 105.1 ° F 77.0 ° F 63% 29.62 pul 6.2 mi NNE 9.2 mph - N/A   Parcialmente nublado
8:00 PM 87.8 ° F 99.7 ° F 77.0 ° F 70% 29.62 pul - NNE 6.9 mph - N/A   Despejado
9:00 PM 86 ° F - 76 ° F 65% 29.67 pul 12 mi NE 5.8 mph - -  
9:00 PM 84.2 ° F 94.1 ° F 77.0 ° F 79% 29.65 pul - NE 5.8 mph - N/A   Despejado
10:00 PM 84.2 ° F 94.1 ° F 77.0 ° F 79% 29.68 pul - NE 5.8 mph - N/A   Despejado
11:00 PM 84.2 ° F 92.3 ° F 75.2 ° F 74% 29.68 pul - NE 8.1 mph - N/A   Despejado